DECAYED
Showing default

FLOCK 4X 12, 51015 (Decayed)

Orbit data source: Space-Track

FLOCK 4X 12, 51015 was a payload satellite owned by Planet (US) in LEO that was launched on Thu, 13 Jan 2022 UTC via an FALCON 9 launch vehicle from the Air Force Eastern Test Range (AFETR). Payload-class satellites include a variety of spacecraft equipped with specific instruments for various scientific and technological missions. These include communications satellites like Starlink; space stations such as the ISS; scientific satellites like the Hubble; Earth observation satellites from companies like Planet Labs, Umbra, and HawkEye 360; GPS; miniature CubeSats for education and research; and military/defense satellites.

Not visible in the next 10 days
Identifier
51015, 2022-002AH
Orbit
Decayed
Last TLE update
9 months ago
Origin
Manufacturer
Planet
Mission
Decayed Commercial Imaging
Bus & Motor
CUBESAT 3U, Unknown motor
Mass
5.7 kg wet, 5.7 kg dry
Launch date (UTC)
2022-01-13 (4 years ago)
Launch vehicle
FALCON 9
Launch site
Air Force Eastern Test Range (AFETR)
Object type
Payload
Rocket body
Debris
Shape & HBR
Box + 2 Pan, 0.1 m
Radar Cross Section
0.108 m², Small (<0.1 m²)

Expand to show TLE details & history

TLE from 9 months ago
0 FLOCK 4X 12
1 51015U 22002AH  24291.36277778  .19631695  25467-5  56155-3 0  9997
2 51015  97.3539  12.0886 0010221 268.3699  91.6432 16.44587875154048
Epoch: 2024-10-17T08:42Z
TLE epoch observation values (Epoch: 2024-10-17T08:42:24Z)
Latitude
-0.00002°
Longitude
-144.85934°
Altitude
157.084 km
Speed
7.812 km/s
True Right ascension
00h 48m 21s
True Declination
0° 00' 00"
Sunlit
Object was in full shadow at epoch
Visualization orbit readout
Visualization observer readout
Orbital elements
Apogee altitude
157.099 km
Perigee altitude
143.753 km
Semi-major axis
6,528.563 km
Eccentricity
0.00102
Inclination
97.3539°
RAAN
12.0886°
Arg. of periapsis
268.3699°
True anomaly
91.76027°
Mean anomaly
91.6432°
Eccentric anomaly
91.70174°
Mean motion
4.1145 °/min
Orbital period
87.5 mins
BSTAR
0.00056155
Loading maneuver chart data...
Loading SW <> Apogee altitude chart data...
|